Content
SEND FEEDBACK

Daily
Averages
Monthly
Summary
United States of America

TRUCHAS, NEW MEXICO


Home > North America > United States > New Mexico
Elevation: 7828 feet     Latitude: 36 02N     Longitude: 105 49W

WEATHER
 
SELECT A DAY
Number of Records: 236,761;   Date Range: 1/1/95 - 7/26/14
 
SHARE

PRINT THIS DATA

[ ← Previous Day ]
WEATHER ALMANAC - JANUARY 31, 2013
[ Next Day → ]
[ °C ]   °F
Weather ElementAverageHighLow
Temperature33.1 °F43.3 °F (4:15 pm)24.4 °F (5:35 am)
Dewpoint20.2 °F22.6 °F (11:35 am)17.6 °F (12:35 am)
Humidity60.6 %80 % (5:35 am)40 % (4:15 pm)
Barometer30.22 in30.28 in (10:35 am)30.14 in (3:15 am)
Wind Speed0.9 mph6.9 mph (12:15 pm)
Weather ElementAverage
Visibility10 mi
Wind DirectionNNE (24.9 °)

Weather ElementTotal
Precipitation---
Heating Degree Days31.2 (Base 65)
Averaged from 68 records on January 31, 2013
WEATHER CONDITIONS BREAKOUT
WIND DIRECTION BREAKOUT
WEATHER BY HOUR - JANUARY 31, 2013
[ °C ]   °F
Local TimeTemperatureDewpointHumidityBarometerVisibilityWind DirectionWind SpeedGust SpeedPrecipitationEventsConditions
12:35 AM27.7 °F17.6 °F66 %30.16 inCalmMostly Cloudy
12:55 AM27.0 °F17.8 °F68 %30.15 inCalmScattered Clouds
1:15 AM26.4 °F18.0 °F70 %30.15 inCalmClear
1:35 AM27.0 °F18.3 °F70 %30.15 inCalmClear
1:55 AM26.4 °F18.3 °F71 %30.15 inCalmClear
2:15 AM26.1 °F18.3 °F73 %30.15 inCalmClear
2:35 AM26.1 °F18.5 °F73 %30.15 inENE (70°)4.6 mphClear
2:55 AM25.5 °F18.3 °F74 %30.15 inCalmClear
3:15 AM25.7 °F18.9 °F75 %30.14 in10.0 miCalmClear
3:35 AM25.7 °F19.0 °F76 %30.15 in10.0 miCalmClear
3:55 AM24.6 °F18.9 °F79 %30.15 in10.0 miCalmClear
4:15 AM25.5 °F19.2 °F77 %30.17 in10.0 miCalmClear
4:35 AM25.2 °F18.9 °F77 %30.17 in10.0 miCalmClear
5:15 AM24.8 °F18.9 °F78 %30.17 in10.0 miCalmClear
5:35 AM24.4 °F19.0 °F80 %30.17 in10.0 miCalmClear
5:55 AM25.2 °F19.2 °F78 %30.18 in10.0 miCalmClear
6:15 AM25.0 °F19.6 °F80 %30.18 in10.0 miCalmClear
6:35 AM25.3 °F19.8 °F79 %30.19 in10.0 miCalmClear
6:55 AM25.3 °F19.8 °F79 %30.22 in10.0 miCalmClear
7:15 AM25.0 °F19.6 °F80 %30.22 in10.0 miCalmClear
7:35 AM25.7 °F20.3 °F80 %30.23 in10.0 miCalmScattered Clouds
7:55 AM26.2 °F20.7 °F79 %30.24 in10.0 miCalmClear
8:15 AM27.5 °F21.2 °F77 %30.23 in10.0 miCalmClear
8:35 AM28.2 °F21.2 °F75 %30.25 in10.0 miCalmClear
8:55 AM30.0 °F21.2 °F70 %30.26 in10.0 miCalmClear
9:15 AM29.7 °F21.9 °F73 %30.27 in10.0 miSE (130°)4.6 mphClear
9:35 AM31.1 °F22.1 °F69 %30.27 in10.0 miSE (130°)3.5 mphClear
9:55 AM31.8 °F22.3 °F68 %30.27 in10.0 miESE (110°)4.6 mphClear
10:15 AM32.0 °F22.3 °F67 %30.26 in10.0 miEast (80°)3.5 mphClear
10:35 AM32.5 °F22.3 °F66 %30.28 in10.0 miENE (60°)5.8 mphClear
10:55 AM32.9 °F21.4 °F63 %30.28 in10.0 miCalmClear
11:15 AM34.7 °F21.9 °F60 %30.27 in10.0 miCalmClear
11:35 AM36.0 °F22.6 °F58 %30.26 in10.0 miEast (80°)4.6 mphClear
11:55 AM36.5 °F22.1 °F56 %30.25 in10.0 miENE (60°)5.8 mphClear
12:15 PM37.2 °F22.5 °F55 %30.24 in10.0 miENE (70°)6.9 mphClear
12:35 PM37.8 °F21.9 °F53 %30.22 in10.0 miCalmClear
12:55 PM38.5 °F22.1 °F52 %30.21 in10.0 miCalmClear
1:15 PM39.9 °F21.9 °F49 %30.20 in10.0 miEast (100°)4.6 mphClear
1:35 PM39.7 °F20.7 °F46 %30.20 in10.0 miCalmClear
1:55 PM40.8 °F20.7 °F45 %30.21 in10.0 miCalmClear
2:15 PM40.8 °F20.8 °F45 %30.21 in10.0 miCalmClear
2:35 PM41.9 °F21.2 °F44 %30.22 in10.0 miCalmClear
2:55 PM42.3 °F20.8 °F43 %30.23 in10.0 miCalmClear
3:15 PM42.8 °F20.8 °F42 %30.24 in10.0 miCalmClear
3:35 PM42.8 °F20.7 °F41 %30.24 in10.0 miCalmClear
3:55 PM43.2 °F20.7 °F41 %30.24 in10.0 miCalmClear
4:15 PM43.3 °F20.7 °F40 %30.24 in10.0 miCalmClear
4:35 PM43.2 °F21.2 °F42 %30.25 in10.0 miCalmClear
5:15 PM41.9 °F20.3 °F42 %30.25 in10.0 miCalmClear
5:35 PM41.0 °F19.9 °F43 %30.25 in10.0 miCalmClear
5:55 PM41.0 °F19.9 °F43 %30.25 in10.0 miCalmClear
6:15 PM39.2 °F20.1 °F46 %30.26 in10.0 miCalmClear
6:35 PM38.3 °F19.9 °F48 %30.26 in10.0 miCalmClear
6:55 PM37.8 °F19.9 °F49 %30.26 in10.0 miCalmClear
7:15 PM37.4 °F20.3 °F50 %30.26 in10.0 miNW (320°)3.5 mphClear
7:35 PM37.8 °F19.4 °F48 %30.26 in10.0 miNW (310°)3.5 mphClear
7:55 PM37.4 °F19.4 °F48 %30.26 in10.0 miCalmClear
8:15 PM37.4 °F19.2 °F48 %30.26 in10.0 miCalmClear
8:35 PM36.5 °F19.4 °F50 %30.25 in10.0 miCalmClear
8:55 PM36.1 °F19.8 °F51 %30.25 in10.0 miCalmClear
9:15 PM37.0 °F19.0 °F48 %30.25 in10.0 miCalmClear
9:35 PM35.8 °F19.4 °F51 %30.25 in10.0 miEast (80°)3.5 mphClear
10:15 PM33.6 °F19.4 °F56 %30.26 in10.0 miCalmClear
10:35 PM33.3 °F19.4 °F57 %30.27 in10.0 miCalmClear
10:55 PM32.4 °F19.4 °F59 %30.27 in10.0 miCalmClear
11:15 PM32.5 °F19.9 °F60 %30.27 in10.0 miCalmClear
11:35 PM32.2 °F20.3 °F62 %30.27 in10.0 miEast (90°)3.5 mphClear
11:55 PM32.2 °F20.1 °F61 %30.27 in10.0 miCalmClear
Hourly data recorded from KLAM, located miles away from Truchas, New Mexico







STORIES FROM OUR PARTNERS